Theta_e
339 339 340 339 340 342 343 342 343 343 348 346 347 347 347 351 353 353 355 358 358 357 357 355 354 356 356 351 352 355 360 358 357 357 359 360 363 366 371 366 370 371 370 369 369 370 370 372 369 366 369 365 363 365 362 361 365 367 370 367 359 362 359 360 359 358 365 358 372 357 359 363 359 358 352 349 347 348 349 352 362 349 350 352 361
339 339 339 340 339 342 342 342 346 341 346 344 347 349 349 350 351 352 355 357 358 357 358 357 359 355 353 352 352 353 358 355 355 358 357 360 369 371 369 366 370 370 371 370 370 367 368 368 366 363 372 365 364 364 363 367 367 365 363 369 366 361 359 356 357 358 358 354 350 351 355 362 367 353 347 344 344 344 346 351 349 347 346 347 351
338 339 339 340 339 341 341 342 343 342 344 344 346 349 349 353 356 357 355 356 357 358 360 360 361 361 356 353 352 353 356 356 357 361 360 359 363 367 372 372 371 369 371 369 369 366 369 369 365 366 365 368 368 367 366 367 370 365 366 362 361 367 362 365 364 359 353 353 357 360 350 347 351 349 347 344 341 342 341 343 349 342 339 346 353
337 338 337 339 338 341 340 342 343 343 346 345 345 348 347 356 357 359 358 357 359 361 362 360 361 364 367 362 360 357 355 359 361 362 362 360 360 363 370 370 368 366 366 366 367 371 371 368 366 365 370 369 368 366 366 362 366 370 366 362 363 357 353 361 360 363 362 359 352 355 349 347 343 341 356 357 345 345 342 340 347 343 344 349 366
337 337 338 338 338 340 340 343 342 342 344 344 345 348 347 351 356 360 359 359 360 361 364 364 365 365 366 367 364 362 362 363 357 356 359 360 359 362 363 368 368 365 364 366 367 369 371 371 370 369 371 368 367 367 366 363 362 364 366 366 364 359 351 355 363 356 360 366 366 353 346 344 342 345 345 358 346 343 342 335 343 345 342 351 355
341 338 338 338 338 340 342 343 341 342 344 345 347 348 349 352 356 361 359 361 358 361 365 365 364 365 366 362 360 357 356 357 353 352 354 355 354 359 363 363 363 364 366 369 366 368 370 370 369 368 367 370 369 367 367 364 362 366 364 363 361 363 367 357 356 364 357 364 365 363 355 348 351 348 346 347 356 347 345 345 341 343 340 344 349
340 339 339 338 339 340 341 341 341 342 343 346 347 348 351 353 356 358 359 361 361 362 365 365 363 364 362 358 359 358 357 358 363 355 356 358 360 359 362 363 365 361 362 367 368 368 370 370 370 371 370 369 369 368 366 359 358 362 365 364 365 368 367 362 356 355 364 366 355 352 354 358 353 355 348 349 344 354 353 343 340 351 341 343 345
341 341 340 340 340 340 341 341 341 342 344 346 346 348 354 358 358 360 360 361 361 362 365 366 363 364 363 360 359 359 355 358 361 361 361 361 361 359 360 361 364 366 364 370 370 369 370 371 372 370 370 370 367 371 364 361 369 368 370 369 376 373 370 360 360 358 359 359 360 355 359 353 351 351 355 351 355 345 351 348 354 346 349 346 353
341 341 340 340 340 340 343 343 342 343 343 344 345 348 354 358 360 361 360 362 364 363 365 365 366 365 363 359 361 362 360 359 361 361 363 362 361 362 364 361 365 369 368 367 371 370 371 371 372 372 370 368 368 371 363 363 364 367 369 368 372 371 373 368 367 366 359 356 362 364 361 360 353 355 349 350 355 347 342 348 342 340 351 344 350
345 345 343 343 342 342 345 345 342 342 343 346 346 348 351 357 359 361 360 361 363 363 366 366 365 365 363 362 360 362 361 361 361 364 366 368 361 363 366 366 360 364 368 368 372 371 369 373 368 365 366 364 363 368 366 367 369 370 365 365 368 367 378 373 368 371 364 362 361 371 366 367 358 353 349 348 354 352 342 339 346 340 351 353 358
347 346 346 346 345 345 347 346 345 342 343 344 345 347 350 354 358 360 361 361 363 362 364 364 364 363 362 363 361 360 360 360 362 361 365 364 362 360 364 367 365 362 363 368 368 369 368 370 365 365 364 370 370 368 369 361 361 363 362 366 368 370 366 365 364 367 367 371 358 371 365 358 358 356 360 352 349 349 350 341 339 339 337 344 355
347 347 345 344 346 346 347 347 346 345 343 343 343 347 351 354 357 359 361 362 363 362 364 362 362 363 362 363 362 362 361 356 360 358 361 361 360 362 368 367 366 362 365 365 363 363 369 369 369 368 368 365 366 370 368 361 361 365 370 375 373 371 371 368 366 363 360 369 363 357 359 355 355 353 351 354 354 355 349 344 347 356 350 347 350
344 346 345 344 343 343 344 347 350 351 346 345 343 345 350 355 359 359 360 362 363 363 363 362 362 361 361 361 363 365 363 364 361 361 361 362 362 362 366 366 367 366 365 359 360 361 368 371 368 371 372 370 377 373 373 371 372 363 370 364 370 369 373 370 371 363 360 364 359 355 356 354 358 358 363 354 354 362 367 350 346 345 346 345 358
344 345 346 345 344 345 346 347 347 348 345 344 344 347 350 354 360 358 361 362 364 364 363 362 361 362 363 362 364 366 364 364 362 359 358 363 365 363 358 357 364 362 359 365 359 359 363 367 369 371 376 374 375 376 373 373 371 368 370 369 364 372 374 372 373 363 370 363 363 362 356 355 355 353 357 358 350 348 349 352 353 353 345 343 368
344 344 345 346 346 347 346 347 347 348 346 347 346 350 353 356 361 361 361 362 364 365 364 363 360 362 363 363 364 364 362 362 362 362 362 361 356 358 364 359 359 361 366 367 372 368 366 368 369 370 374 375 374 372 368 373 374 371 371 375 366 369 372 369 370 361 359 359 361 363 364 360 361 361 356 366 355 354 353 357 363 350 347 348 351
345 345 345 348 350 350 348 348 347 348 353 355 354 355 352 354 361 361 362 361 362 365 365 364 361 359 362 364 363 364 364 362 365 365 366 361 362 364 365 369 364 366 367 368 365 368 369 366 368 367 372 370 372 373 373 369 373 372 373 374 370 367 368 369 371 362 360 363 357 366 370 360 363 359 358 358 360 359 363 368 361 360 353 347 349
344 345 345 348 347 350 348 348 347 348 349 353 357 352 351 350 359 362 363 361 361 365 364 364 364 360 360 362 361 362 360 359 356 357 353 357 362 361 360 359 363 366 361 363 364 371 371 368 365 363 370 371 371 373 370 373 373 372 368 373 370 366 371 372 368 366 370 358 358 361 367 371 370 372 368 363 369 369 366 372 369 363 359 352 349
342 346 347 347 345 347 349 348 348 349 350 355 355 355 352 351 357 359 364 361 360 361 362 362 363 360 360 360 361 360 357 356 356 356 354 356 360 359 359 360 358 357 357 356 363 363 369 368 369 369 365 367 368 366 370 370 373 372 370 374 370 373 370 372 371 366 367 369 366 363 363 364 368 362 363 358 370 372 371 366 367 373 366 357 355
343 344 344 344 345 346 349 350 351 352 354 354 355 355 355 356 359 360 361 360 363 361 361 363 362 358 357 358 357 358 358 357 356 358 357 354 352 354 354 357 356 362 366 371 363 362 365 366 370 365 368 367 367 367 370 370 370 371 367 367 369 371 369 369 372 369 362 367 366 364 369 370 373 365 366 360 369 371 373 377 373 380 374 360 359
344 344 347 347 347 348 349 351 356 351 352 350 351 354 355 357 354 354 358 364 363 362 360 361 361 359 357 360 361 361 361 359 358 359 354 352 353 353 354 351 354 356 356 361 362 360 361 360 359 359 359 360 362 361 362 368 368 367 364 360 361 366 367 367 364 364 357 364 366 364 371 367 369 367 370 368 374 364 367 371 372 375 373 368 366
344 343 346 347 350 350 351 357 358 353 353 351 350 350 353 356 354 356 358 358 358 358 358 360 362 361 361 360 358 359 356 357 355 355 355 354 354 355 352 351 355 354 354 354 358 361 363 362 359 361 358 360 364 363 362 366 366 368 368 369 369 371 364 365 367 365 360 365 370 366 367 368 371 371 371 365 365 368 365 363 365 367 362 364 363
343 343 345 346 349 353 353 355 357 355 354 353 353 353 349 351 353 354 354 353 356 358 360 360 362 357 358 359 360 359 358 357 354 352 353 353 353 354 356 355 351 354 354 351 356 353 358 361 359 361 361 360 365 367 359 360 363 364 363 359 360 367 371 367 368 367 367 362 366 369 366 365 371 366 362 356 357 354 353 353 357 357 358 360 362
341 342 344 345 347 349 350 352 353 355 354 355 351 352 352 352 356 360 359 361 358 357 359 364 363 359 359 358 361 361 359 356 353 351 350 350 351 352 355 353 349 349 353 353 355 353 358 361 360 362 364 361 365 361 360 361 361 363 362 359 356 360 361 362 362 364 363 365 363 364 362 364 357 359 361 357 354 356 354 356 361 362 363 359 364
339 340 340 342 343 347 349 350 349 351 354 356 355 355 353 353 353 353 353 355 358 358 357 357 358 358 360 354 357 360 358 355 352 350 349 350 350 351 354 351 349 348 348 352 354 355 359 361 360 363 364 361 362 361 359 359 364 363 362 363 365 366 361 359 360 360 359 360 359 361 358 358 361 362 365 365 368 365 366 365 362 361 361 359 360
337 337 338 340 341 342 344 346 347 349 351 351 351 352 352 354 353 354 355 354 357 357 356 354 356 356 358 356 351 354 357 357 354 351 349 349 349 349 352 351 349 346 348 349 353 357 359 360 355 357 361 361 360 361 362 358 359 360 362 360 361 363 364 362 360 362 363 362 360 357 358 358 360 358 361 361 359 360 358 357 358 361 362 362 362
335 336 336 336 338 341 341 343 345 348 348 347 347 348 352 352 352 355 355 353 353 355 354 353 358 356 354 355 354 352 353 354 354 353 350 350 348 348 349 352 351 348 348 349 351 351 355 358 356 355 358 360 361 361 362 361 358 358 359 359 362 363 360 360 360 361 360 360 357 359 359 360 358 356 354 355 359 359 362 359 357 359 364 368 368
332 333 334 336 337 337 340 342 342 343 345 348 350 351 351 351 353 354 353 353 354 358 358 356 356 356 354 354 355 356 350 356 354 352 349 349 348 347 347 349 351 350 347 345 348 351 352 357 358 357 356 359 361 361 363 364 362 361 360 358 357 360 360 359 358 356 355 355 355 354 356 356 355 357 353 353 357 361 359 358 362 368 369 363 358
330 331 332 332 333 336 339 339 341 342 343 348 349 350 351 351 351 353 355 354 354 350 349 352 356 354 353 352 355 357 353 356 358 356 354 349 347 346 347 349 351 349 347 345 343 347 351 352 357 357 358 360 362 361 363 365 364 361 360 359 359 357 356 357 356 356 354 352 352 351 348 351 352 354 354 354 355 354 360 358 359 362 361 360 358
327 328 329 329 330 331 333 335 339 341 341 342 342 344 348 349 351 354 354 353 353 355 354 354 356 354 353 355 354 355 352 352 356 360 358 355 353 353 355 355 353 348 346 347 345 343 348 349 352 356 358 357 356 358 358 361 362 362 360 355 355 356 356 355 354 351 352 352 351 349 348 348 353 365 360 357 356 359 351 352 358 361 363 364 365
325 326 327 328 328 329 330 332 333 334 337 339 339 341 344 349 351 354 354 351 355 354 352 352 351 352 354 356 359 353 352 354 354 351 349 348 349 357 349 352 355 353 354 354 352 351 347 350 351 354 356 354 354 354 356 348 352 359 360 355 352 353 354 354 355 353 350 351 348 347 347 362 364 369 363 354 351 352 357 353 356 363 366 363 362
325 326 326 327 328 327 328 330 330 331 333 335 341 342 343 345 347 347 349 351 351 350 353 352 354 352 353 355 357 354 354 353 354 355 354 355 355 353 349 356 360 361 360 370 363 353 348 345 349 351 352 351 351 351 346 337 338 345 358 359 355 354 355 355 354 354 352 348 346 347 348 356 362 364 363 359 351 348 349 350 352 357 366 365 363
323 324 325 325 327 327 327 327 327 327 329 332 338 338 339 341 343 346 351 352 351 349 349 350 350 351 352 352 355 357 356 356 357 355 355 355 356 353 351 352 355 358 364 360 354 357 358 351 346 346 347 350 352 349 335 333 335 336 346 357 356 353 351 353 353 351 351 350 347 344 343 342 343 350 350 359 355 349 345 346 345 346 348 350 355
322 322 323 323 324 326 327 326 327 328 328 329 332 335 341 342 343 347 349 348 347 346 346 348 347 347 348 349 351 353 355 356 356 357 357 354 353 355 353 354 354 357 359 363 359 356 357 356 352 352 350 348 350 341 332 329 332 333 334 348 353 353 349 346 347 350 349 350 351 349 346 346 341 359 360 351 358 355 345 341 344 345 346 345 338
321 322 322 322 323 324 325 326 327 328 329 330 333 331 333 337 340 345 345 344 344 344 344 345 347 346 346 346 346 347 349 354 356 356 357 358 355 353 355 357 358 358 358 355 357 359 358 361 358 356 357 353 350 344 331 326 327 329 331 338 353 349 348 347 347 347 347 349 351 352 352 350 350 350 352 356 364 364 358 354 351 352 354 354 347
320 320 320 322 323 324 325 325 324 325 328 329 329 331 331 333 336 336 338 340 339 339 341 343 344 346 346 345 343 341 343 346 352 357 357 356 356 356 355 355 356 357 357 357 357 354 356 359 358 357 357 355 353 340 329 323 323 324 328 334 352 350 347 346 347 348 351 350 353 355 353 351 352 353 354 355 352 359 368 364 359 356 355 355 356
319 320 320 320 320 323 324 327 328 325 324 326 326 331 331 330 333 337 337 336 337 337 337 339 338 340 344 346 344 342 342 346 349 351 354 357 357 357 356 357 357 356 358 360 359 356 353 354 356 355 356 356 357 337 332 323 320 321 326 341 350 352 350 349 350 351 350 351 351 350 355 357 356 356 358 350 355 357 355 359 365 366 364 363 360
319 319 320 321 321 321 323 328 328 324 328 329 325 328 330 329 329 332 334 334 336 337 337 338 337 339 341 344 346 343 343 344 346 349 350 353 355 357 358 359 356 355 354 355 356 355 357 355 357 357 355 354 355 346 331 321 318 319 324 344 349 351 352 351 352 355 357 358 357 355 353 348 349 354 354 339 339 354 356 354 354 357 360 361 363
318 319 320 320 320 320 322 321 322 322 322 329 332 331 330 331 329 331 336 337 336 335 336 338 337 339 340 343 345 347 345 344 345 346 349 352 354 356 358 360 355 354 354 354 356 358 357 356 354 354 353 354 356 351 331 319 316 317 329 346 348 351 352 354 354 356 357 358 360 365 365 358 354 353 341 334 334 347 356 357 355 354 354 356 359
317 317 317 317 319 320 320 321 320 320 321 323 326 326 325 327 328 326 331 332 332 332 332 333 332 334 338 340 339 343 345 344 345 345 346 349 351 353 355 356 358 357 356 357 358 357 357 357 357 356 354 354 356 350 332 319 316 315 327 347 350 352 351 353 353 354 357 357 358 361 363 358 357 353 336 333 330 345 357 358 357 356 353 351 353
316 317 317 318 321 319 318 317 317 320 321 321 322 323 325 325 325 324 325 324 328 331 332 335 335 334 335 337 338 343 343 343 345 345 347 349 352 353 354 355 357 358 357 356 356 355 354 355 355 355 354 354 354 356 353 320 315 313 318 348 356 353 352 352 354 354 355 357 359 360 358 338 331 331 330 328 326 326 353 360 360 356 354 353 357
315 316 320 316 317 316 316 316 320 322 319 320 321 321 322 324 326 326 325 325 328 331 333 335 336 335 334 334 334 337 339 341 342 346 345 347 348 350 354 354 354 355 354 353 354 355 354 356 357 357 354 354 355 354 352 328 314 312 314 327 353 355 355 355 356 355 355 355 357 360 360 345 328 325 323 322 321 319 332 358 361 358 357 357 360
317 318 317 316 315 317 317 316 318 318 319 319 319 321 324 324 323 323 325 329 332 332 333 334 334 335 335 334 333 339 339 337 343 347 347 347 347 348 348 353 356 356 353 352 352 353 353 353 354 356 356 357 359 359 360 338 326 312 311 315 346 356 356 357 356 356 356 357 358 360 363 352 328 324 321 320 318 320 320 348 357 337 337 338 355
314 315 316 316 316 315 316 317 317 318 319 319 318 320 321 323 323 325 326 328 330 332 333 334 335 335 337 336 337 336 339 334 338 342 344 344 346 346 348 351 350 353 354 351 350 350 352 350 348 349 351 352 356 357 347 352 333 315 310 309 317 338 337 358 356 356 358 358 361 363 364 358 331 318 317 318 318 318 322 335 329 328 329 331 344
313 314 315 316 316 316 316 317 317 319 320 321 321 321 322 321 323 328 327 327 328 328 332 331 332 334 333 332 331 332 334 335 336 340 344 345 345 346 347 349 350 351 352 353 352 352 349 347 346 348 350 352 353 355 349 339 343 319 309 310 311 312 316 345 357 356 359 358 360 362 360 339 331 315 312 315 317 318 330 322 320 324 327 333 347
313 313 317 316 315 314 314 316 317 319 320 322 321 320 321 321 325 327 328 326 326 326 328 328 329 329 330 329 330 332 332 332 334 336 338 339 341 344 344 347 349 349 351 352 355 351 347 346 348 348 350 353 356 358 359 350 336 330 313 308 310 312 316 315 335 351 358 359 346 337 329 325 327 317 309 311 314 315 314 317 320 322 330 343 347
314 314 314 314 314 314 314 315 316 318 318 322 319 319 320 322 321 325 325 324 325 326 326 326 325 325 325 326 328 327 327 331 333 332 332 334 335 338 343 349 349 348 351 352 353 348 346 345 345 348 352 355 358 359 358 356 352 345 335 320 311 310 313 316 322 339 334 328 322 319 321 325 327 326 333 337 341 342 324 318 319 325 337 344 347
313 313 315 314 314 313 314 315 314 317 317 318 318 318 319 323 323 320 320 324 323 324 325 325 325 322 325 326 327 325 326 326 327 326 328 331 336 336 336 343 345 340 342 348 349 348 347 348 347 348 349 352 353 355 360 356 355 359 356 348 340 335 331 326 330 333 331 336 338 339 342 332 330 332 334 339 341 343 343 337 331 333 337 342 346
314 314 315 314 313 313 313 314 315 316 317 318 318 318 319 319 320 320 321 322 323 323 321 322 322 322 323 322 322 327 328 325 324 324 324 328 331 331 331 338 339 337 337 338 339 344 343 342 340 341 342 343 344 350 355 353 353 345 342 345 347 348 350 349 344 343 344 346 349 342 339 346 349 350 352 352 352 353 352 350 348 342 341 343 347
313 313 314 313 313 313 313 313 314 315 316 317 317 318 319 320 320 321 323 322 321 322 323 322 322 322 322 325 322 322 323 323 324 327 330 336 333 331 337 338 335 337 335 332 333 333 335 335 337 340 340 341 342 341 347 333 337 318 330 337 341 344 346 350 350 330 348 351 352 349 348 347 348 349 350 352 353 355 355 355 355 355 350 348 347
312 313 313 313 314 313 313 313 314 315 316 316 316 318 319 318 320 321 322 321 321 321 322 322 322 323 323 323 323 322 323 324 323 323 325 328 333 322 326 332 329 333 327 320 321 333 336 338 336 338 341 339 339 342 326 313 310 310 312 313 317 316 315 329 332 322 333 344 346 346 348 349 350 351 352 353 354 354 355 355 356 345 353 354 351
311 311 311 312 312 313 313 313 314 315 315 315 316 317 319 319 321 321 321 321 321 321 320 320 323 323 324 324 323 322 324 327 327 325 328 328 329 330 312 310 316 323 320 313 308 308 310 314 330 334 334 324 321 316 311 309 307 305 303 302 302 305 307 308 310 329 344 344 344 345 347 352 354 355 354 355 354 354 354 354 355 356 357 353 350
Wind_Speed
14 14 15 14 14 13 13 11 12 12 11 12 11 12 11 8 9 8 7 9 7 6 6 6 6 5 5 7 7 6 4 6 6 5 5 6 8 6 6 6 5 4 5 4 2 2 3 3 4 3 3 3 2 1 2 2 2 2 3 2 2 3 4 2 2 3 1 1 2 2 2 2 3 3 5 6 6 4 4 5 2 4 4 6 3
16 13 16 14 13 15 14 11 12 13 11 13 11 11 10 11 11 9 8 8 7 7 6 6 5 5 6 6 6 6 5 6 6 5 6 8 6 5 5 6 6 4 5 4 3 3 2 3 4 2 2 3 2 3 4 2 3 3 2 1 2 1 2 4 5 3 2 2 3 2 2 2 1 3 6 5 5 4 4 4 5 5 7 5 3
15 15 16 14 16 16 13 11 12 13 14 14 12 12 10 9 8 7 8 7 7 7 6 5 5 5 5 6 7 6 6 6 7 6 7 8 8 6 5 5 5 5 6 4 4 4 3 4 4 3 2 4 3 2 2 1 2 3 3 1 2 1 2 1 3 2 3 2 2 1 1 1 3 4 9 4 5 4 6 4 4 5 5 4 6
16 16 17 15 16 14 13 12 12 13 12 13 13 13 11 8 8 7 8 7 6 7 5 7 6 6 4 4 4 5 5 6 7 3 5 8 8 7 4 5 5 5 7 7 4 3 3 5 4 5 3 3 3 1 1 0 2 1 0 2 2 2 1 1 2 2 2 3 1 1 2 0 1 4 2 3 5 4 4 5 2 5 6 5 2
15 16 16 15 16 15 14 11 14 13 13 13 13 13 10 12 9 7 8 7 6 7 6 6 5 4 3 4 0 5 5 3 7 5 5 7 8 7 7 6 5 5 6 6 5 5 3 3 2 3 4 3 3 4 3 2 1 3 3 2 2 1 1 2 1 2 2 1 0 3 1 2 2 2 1 3 4 5 4 5 2 3 4 4 3
10 15 16 15 16 14 14 13 14 14 13 14 13 13 12 12 11 8 7 6 7 8 6 6 6 5 5 5 5 5 6 5 6 7 6 7 9 8 8 8 8 6 5 6 5 6 4 4 3 3 5 5 2 2 1 3 5 2 3 1 2 4 1 1 2 2 2 2 2 2 4 3 1 3 3 1 3 5 6 2 4 5 7 6 4
15 15 16 16 16 14 15 14 14 15 13 14 13 13 13 12 11 9 8 7 7 8 7 6 6 5 6 7 5 5 5 4 4 6 7 4 4 8 7 7 6 6 7 6 5 6 5 5 6 3 3 6 4 5 5 3 4 3 3 3 1 3 3 2 3 2 4 2 2 1 4 4 1 2 1 2 3 5 2 5 3 0 6 7 6
13 13 15 15 15 15 15 15 14 14 14 15 13 13 13 12 12 10 8 7 7 8 7 6 7 6 6 5 5 5 6 5 4 4 4 7 5 7 7 6 6 5 6 6 5 6 5 4 3 5 2 2 4 3 2 1 0 3 3 2 1 1 2 3 2 3 2 2 1 3 2 3 4 3 2 2 2 2 3 5 1 2 3 2 0
15 13 16 15 16 15 14 14 14 15 14 14 12 12 12 12 12 10 9 8 8 10 7 7 7 6 6 5 5 4 4 4 3 4 4 6 6 6 5 7 5 5 3 7 6 6 5 4 4 3 4 3 3 1 4 2 2 3 3 2 1 1 3 3 2 1 2 2 3 2 3 3 2 2 3 2 2 2 4 0 2 3 2 3 4
12 14 12 11 14 15 15 15 14 14 14 14 13 14 14 12 12 11 10 8 9 10 8 9 8 7 6 5 6 4 4 4 3 2 4 4 5 6 5 6 6 6 5 5 5 5 5 5 4 4 4 2 4 1 2 3 4 2 5 2 2 2 2 2 2 0 1 1 1 1 1 1 2 3 1 3 1 2 3 5 2 4 2 1 2
8 9 10 9 11 14 15 16 14 13 13 14 13 14 14 14 14 12 11 9 10 11 10 10 9 8 6 5 7 6 6 5 5 3 4 3 4 4 5 5 5 6 6 5 7 6 5 5 5 4 4 3 4 3 3 1 2 3 5 6 4 2 3 4 1 2 2 2 2 2 3 4 3 2 2 2 2 1 2 4 3 6 4 1 1
10 9 11 14 9 9 13 12 12 11 14 15 14 14 14 13 14 13 11 10 10 12 11 11 9 8 7 6 7 6 6 6 5 6 4 4 4 5 4 4 4 6 5 6 6 8 5 4 4 3 5 2 4 3 4 4 2 2 1 2 3 3 3 4 1 2 2 3 3 1 3 2 4 4 2 4 2 1 2 4 5 2 2 3 4
13 11 11 13 12 12 14 12 10 10 10 13 14 15 14 14 15 14 13 11 11 12 12 11 9 9 8 8 7 5 5 5 5 6 5 5 5 4 4 5 4 4 5 7 6 7 6 4 6 4 5 5 2 4 3 4 3 2 2 0 2 2 2 2 1 3 1 2 2 3 3 3 1 3 1 1 3 2 1 1 3 5 4 4 1
13 11 11 11 11 13 12 12 11 9 13 14 14 12 13 14 14 15 14 12 11 12 12 11 10 9 8 8 7 6 6 5 5 6 7 5 5 5 6 6 5 4 5 4 5 7 7 6 4 5 3 4 5 4 3 4 4 3 2 2 2 1 3 2 2 4 1 2 1 3 3 1 3 4 1 1 2 3 3 1 2 2 4 5 1
11 11 11 11 10 11 11 11 13 10 12 14 13 10 12 12 12 14 13 13 12 12 11 12 10 9 8 8 7 7 7 5 6 5 6 6 7 6 5 5 5 5 4 4 2 4 6 6 5 5 4 4 3 4 4 3 3 4 2 1 2 3 2 2 2 4 2 5 3 4 2 2 3 3 2 1 2 2 3 2 2 2 3 5 2
10 9 9 6 4 6 8 9 11 10 7 4 6 9 9 5 11 13 13 13 12 12 11 11 10 10 9 8 9 9 7 7 6 6 5 6 5 5 4 4 5 5 3 4 4 3 4 6 5 5 5 5 4 3 3 4 3 3 3 3 3 3 2 2 2 3 5 2 1 2 2 2 2 2 4 4 3 4 2 2 2 2 1 3 4
8 5 4 6 4 8 11 10 10 11 9 6 8 8 10 6 7 11 12 13 13 12 12 11 10 10 11 10 9 9 10 10 10 9 10 7 6 5 5 5 4 5 6 5 5 4 4 5 6 6 5 5 5 4 3 3 3 3 4 3 2 3 3 2 2 2 2 3 1 2 2 1 1 2 1 0 3 2 2 2 1 1 3 1 2
4 4 5 8 10 12 10 10 10 9 10 7 11 9 8 8 8 13 10 13 14 14 14 12 11 11 11 11 11 10 11 12 10 10 9 7 7 6 6 6 6 6 6 7 6 7 4 5 4 4 6 5 5 6 4 4 4 4 3 3 3 2 3 3 2 3 2 2 1 2 1 2 1 1 3 3 5 2 2 3 2 2 4 2 1
5 8 9 7 5 6 7 7 9 6 7 8 10 8 7 6 5 7 8 11 12 13 13 11 12 11 11 12 13 11 10 10 9 9 8 8 10 9 8 7 8 6 4 3 6 7 6 5 4 5 4 6 5 4 5 4 4 3 4 5 4 3 2 2 2 3 3 2 2 3 2 2 1 2 1 2 1 2 2 1 2 1 0 1 1
9 11 8 9 10 10 9 8 6 7 8 9 10 6 8 6 3 8 10 8 9 10 11 12 13 11 11 11 11 10 9 9 9 9 10 10 9 10 9 10 8 7 7 6 4 6 7 8 8 7 7 7 6 6 6 5 5 4 4 5 5 6 4 4 3 3 5 3 3 3 2 1 1 3 2 2 1 4 3 2 2 2 2 2 2
5 4 9 11 10 9 8 6 6 6 8 8 7 8 7 5 7 7 9 10 13 12 11 9 10 11 11 12 13 12 13 11 12 10 10 10 9 9 10 8 7 7 8 8 6 5 7 8 8 7 8 7 6 6 5 5 5 5 4 3 3 4 6 4 3 3 5 3 2 2 2 2 2 2 2 3 2 1 4 5 4 4 4 4 4
10 7 2 7 8 7 6 5 6 6 4 5 3 6 9 9 10 10 12 13 15 11 9 9 8 8 12 13 14 13 12 11 13 12 12 10 10 8 8 8 10 8 8 10 9 9 6 7 8 8 6 6 7 6 7 5 6 5 6 6 5 3 2 3 3 3 3 4 3 2 3 3 3 3 3 5 4 5 5 5 6 6 5 5 6
11 11 10 9 7 5 4 5 6 6 5 5 6 5 7 11 10 6 4 2 2 2 1 4 5 5 10 10 13 12 12 13 15 13 14 13 12 11 8 9 10 10 8 8 10 10 7 7 7 6 7 6 5 7 6 6 6 7 6 6 6 7 5 4 5 4 4 3 4 3 4 3 5 4 5 5 5 4 3 4 2 1 2 3 4
11 11 13 13 11 6 5 4 3 3 2 3 2 7 10 8 10 9 5 1 3 3 2 3 5 6 3 8 12 11 15 15 15 14 15 15 13 12 10 11 11 11 11 8 7 10 8 7 7 6 7 6 6 6 7 7 6 7 7 7 6 4 7 7 6 5 6 5 5 4 5 5 4 4 3 3 2 3 3 3 3 3 3 3 3
11 13 14 12 13 12 9 6 5 4 3 5 5 2 3 4 3 1 6 6 5 6 5 5 6 8 4 4 6 17 14 15 16 14 16 16 15 13 11 13 12 11 11 10 8 7 8 9 10 8 7 8 8 7 7 8 7 7 7 7 7 6 4 5 6 6 6 5 6 5 5 6 5 4 3 3 3 5 5 4 3 3 4 4 3
12 14 14 13 11 9 10 9 7 5 7 7 5 7 9 5 2 4 5 4 4 3 3 3 5 6 6 5 8 10 18 17 16 16 16 15 14 13 13 12 12 11 9 10 10 9 8 9 9 9 8 8 8 8 7 8 9 9 8 8 7 7 7 6 5 6 6 6 5 5 5 5 4 5 5 5 4 5 4 4 4 4 3 2 2
14 14 14 13 10 12 11 9 9 11 8 5 4 6 6 1 3 7 6 5 4 4 2 3 4 5 7 9 9 9 13 15 14 14 13 12 13 14 14 14 11 10 10 10 12 11 8 8 9 9 9 8 8 8 7 8 8 7 7 9 9 8 8 7 7 8 8 7 8 7 6 5 5 4 5 5 4 4 4 4 4 2 2 3 5
12 13 15 16 13 11 8 9 11 8 7 7 6 7 7 5 4 2 3 4 4 5 1 2 4 4 3 6 4 4 11 16 11 9 9 10 11 11 10 9 11 11 11 11 11 12 10 9 8 9 8 7 8 8 7 7 8 8 7 7 8 8 9 8 8 9 9 9 9 9 10 8 9 8 7 6 5 5 3 4 4 4 5 5 5
14 14 13 14 14 12 11 11 10 9 8 7 9 7 3 3 4 5 6 7 8 6 2 4 2 3 6 6 3 6 8 13 12 13 12 8 5 6 5 5 8 10 11 10 10 10 11 11 10 9 9 9 10 10 9 8 8 9 8 8 8 8 9 8 8 10 9 9 9 9 9 10 9 13 16 13 11 9 6 5 4 4 4 4 3
13 13 14 13 13 13 12 11 11 12 9 7 7 8 6 5 5 4 6 10 7 4 2 1 1 3 4 4 3 5 2 4 7 6 10 15 19 16 8 6 4 6 7 7 7 6 7 11 11 10 10 11 10 10 11 15 13 9 9 10 9 8 9 8 8 7 9 10 11 11 10 13 13 14 16 17 17 16 13 9 5 4 5 5 5
12 12 13 13 13 13 12 11 12 12 11 8 7 4 2 6 7 10 10 10 9 8 8 6 5 7 6 3 3 4 3 4 3 4 7 4 7 7 14 17 8 4 5 3 4 7 8 7 11 12 12 12 12 11 16 16 17 16 11 9 9 8 8 9 9 8 8 8 8 8 8 10 10 11 8 13 15 16 15 14 12 10 8 5 4
12 12 12 13 13 13 13 13 13 12 11 10 6 7 8 9 10 9 8 9 9 9 8 7 8 8 8 8 7 5 5 3 2 2 3 4 6 8 8 9 11 10 6 5 7 6 5 7 8 10 13 13 12 14 15 18 19 19 16 11 10 9 8 8 9 10 8 8 9 9 9 10 7 8 8 8 12 16 16 16 17 16 15 13 10
11 11 12 12 12 12 12 12 11 11 9 10 8 7 7 7 8 7 8 9 9 9 8 8 8 8 7 7 7 6 4 3 3 2 3 4 4 7 5 5 5 7 7 4 6 7 7 7 8 8 7 10 12 15 15 17 19 20 20 16 10 10 10 9 9 9 10 8 7 8 9 8 10 12 10 8 8 11 16 19 19 18 16 15 14
11 11 11 11 10 10 10 11 11 10 10 9 8 9 8 8 8 8 8 8 8 8 9 9 8 8 7 6 5 7 8 8 6 3 2 1 3 3 4 6 5 4 4 5 9 7 7 7 8 8 7 9 10 11 18 17 19 20 20 17 12 12 10 9 8 9 10 10 10 9 8 8 8 7 6 5 3 7 8 9 9 8 8 11 13
10 10 10 10 9 9 9 10 11 10 9 9 9 9 8 9 9 9 9 9 10 10 9 9 8 7 7 7 6 7 6 7 7 6 4 3 2 3 4 4 4 4 4 3 2 4 6 8 8 9 9 11 13 14 10 16 18 20 20 16 13 14 11 9 9 8 6 7 7 9 10 11 9 8 8 8 8 5 5 7 8 10 10 9 9
8 10 9 9 9 8 8 7 8 9 9 9 9 9 9 9 9 8 8 9 9 9 9 8 8 8 7 6 6 7 6 5 6 5 6 5 4 4 4 3 4 5 5 4 3 3 5 4 4 6 11 11 13 15 15 14 17 17 21 12 12 13 12 10 10 9 9 8 8 7 5 6 7 8 11 15 11 8 7 6 7 8 8 9 10
7 8 10 9 9 8 8 6 7 8 6 6 8 9 9 9 9 9 9 9 8 8 7 7 7 6 5 4 4 3 3 5 5 5 5 6 6 5 5 4 4 5 7 7 6 5 6 7 8 9 10 13 14 15 16 15 17 19 12 8 11 11 11 11 10 9 8 8 8 8 8 9 9 7 9 12 14 12 8 9 9 9 8 8 8
6 6 9 9 8 8 7 7 8 9 8 4 5 6 8 7 8 7 7 6 7 7 7 7 6 6 5 5 3 2 3 2 2 3 4 5 5 5 5 4 5 6 6 6 6 6 6 5 7 9 11 11 13 14 16 16 17 18 16 9 11 10 10 10 10 9 8 7 8 13 11 9 9 10 13 13 13 10 8 10 10 11 11 10 9
5 8 8 8 7 7 7 7 8 9 9 8 7 8 9 8 8 8 7 7 8 8 8 8 8 8 7 5 5 3 1 2 2 3 3 5 5 5 4 4 5 5 6 6 6 7 8 7 8 11 13 12 11 14 18 16 17 17 16 11 11 10 11 11 11 10 9 8 8 11 15 13 11 11 15 14 13 11 9 10 10 10 12 12 11
6 9 8 7 6 6 7 8 8 9 9 9 8 8 8 8 8 8 9 9 8 7 7 7 7 7 7 6 6 5 5 5 4 4 4 4 4 5 5 5 5 4 5 7 8 8 10 9 8 9 9 11 14 15 15 14 18 18 19 13 9 10 11 12 11 9 8 7 9 9 12 16 18 17 15 15 14 14 11 10 9 11 11 13 10
6 8 7 6 6 6 7 8 7 7 8 9 9 9 9 8 7 7 8 8 7 7 6 6 6 7 7 7 7 6 6 6 5 3 4 5 5 5 5 5 5 4 5 5 5 6 8 9 6 5 6 8 10 14 16 22 16 15 19 17 10 11 11 10 9 9 8 9 8 8 9 13 18 19 18 17 15 14 14 11 10 11 12 10 6
7 6 6 6 6 7 7 8 8 9 10 10 9 8 7 8 8 8 9 7 6 6 5 5 5 6 6 7 7 6 6 6 5 4 3 4 4 5 5 5 4 4 4 4 5 4 6 8 9 8 7 7 5 5 5 13 17 16 16 21 13 12 12 10 9 8 9 8 9 8 7 10 16 19 19 19 19 17 17 11 14 17 17 13 9
7 7 8 8 7 7 7 8 8 10 9 9 9 8 7 6 7 8 8 7 7 6 5 5 5 5 4 6 6 6 6 6 6 6 6 6 5 5 5 5 5 5 5 6 4 4 6 7 7 7 8 8 6 5 8 10 15 14 15 17 18 14 13 11 10 10 10 9 8 8 9 12 14 16 18 19 19 21 15 13 19 18 16 16 10
6 7 9 9 8 8 8 8 8 7 7 7 8 7 6 7 7 6 8 8 7 7 6 6 5 5 5 7 7 7 6 6 7 6 6 6 6 5 6 5 5 5 5 5 3 5 7 7 6 8 8 7 6 8 9 12 11 10 12 15 18 21 17 10 9 10 9 10 9 8 8 8 8 12 16 18 19 18 15 19 19 19 19 16 9
7 8 9 9 8 9 9 8 7 8 7 7 7 8 9 9 8 7 7 7 7 7 7 7 6 6 7 7 7 5 6 6 7 6 6 6 7 6 6 5 5 5 5 5 4 5 6 4 5 7 8 8 7 7 8 6 5 9 9 12 16 19 23 21 10 7 9 9 9 2 4 4 3 4 9 9 8 11 16 18 19 20 18 8 9
8 8 9 9 9 9 9 9 9 9 9 7 8 8 9 8 9 8 9 8 8 8 8 8 9 9 9 9 8 9 8 7 7 7 8 8 8 7 6 4 4 4 4 4 4 5 7 6 6 7 6 6 7 6 6 3 2 6 7 8 10 14 19 19 15 14 15 16 15 14 10 6 7 4 4 5 6 9 14 17 18 15 7 6 10
8 8 8 8 9 9 9 10 10 10 9 9 10 9 9 8 8 9 10 8 9 9 8 8 7 9 8 8 9 8 8 8 8 9 9 7 5 6 6 5 4 5 4 4 3 1 3 6 7 7 8 8 8 7 1 1 3 2 6 7 5 6 9 9 10 10 11 12 16 14 9 9 9 12 10 8 8 9 8 8 7 7 8 9 10
6 7 7 8 8 9 10 10 9 9 9 9 10 10 10 10 10 10 9 9 9 9 10 10 11 10 9 9 8 11 10 8 8 8 8 7 6 7 7 5 6 6 6 6 6 5 4 5 6 6 7 6 6 6 5 3 4 6 7 8 7 6 6 6 7 9 9 9 9 9 11 9 9 10 10 7 7 8 9 8 7 7 8 10 12
6 7 6 7 8 9 10 10 10 10 10 9 10 10 10 11 10 9 9 9 9 10 10 11 11 10 9 8 9 9 9 9 8 7 6 4 5 6 6 5 6 5 6 7 6 6 7 7 6 5 5 6 4 6 5 4 3 6 3 7 10 8 6 7 6 7 9 7 6 6 6 7 8 10 10 12 11 10 9 10 11 9 8 9 10
6 6 7 7 8 8 9 10 9 9 9 10 10 9 9 10 10 9 8 9 10 9 10 10 9 9 9 9 9 9 8 8 9 9 9 8 8 8 8 8 10 8 10 9 8 8 7 6 8 7 6 7 7 6 7 12 14 8 9 15 14 14 14 13 11 10 6 5 6 6 7 8 9 10 11 9 10 10 10 9 9 11 10 10 10
8 8 7 7 8 8 9 10 9 9 10 10 10 10 9 9 9 8 9 9 8 8 9 9 9 9 8 9 10 10 9 7 7 8 8 9 9 8 12 16 14 13 13 14 13 14 13 12 10 8 8 12 12 13 14 15 14 14 10 10 14 18 18 15 11 5 6 5 5 6 8 9 9 10 10 9 8 8 8 8 9 9 10 12 12
Wind_Direction
163 183 162 165 166 163 151 161 152 154 142 141 147 146 152 147 140 149 141 137 147 154 158 155 154 158 153 162 161 163 138 123 138 140 134 141 139 140 142 143 142 157 126 125 160 76 59 116 111 106 98 110 99 190 228 173 172 217 127 138 318 348 308 241 202 38 31 128 316 132 185 220 174 235 228 184 197 165 158 206 181 145 143 183 166
167 180 165 172 166 163 154 167 159 154 147 151 153 149 157 149 152 154 143 146 157 159 161 153 155 158 170 163 165 153 142 151 143 136 150 133 128 138 156 145 149 139 131 137 140 131 179 133 101 94 166 131 140 203 217 209 128 32 40 340 209 163 251 250 76 41 327 177 210 208 148 207 322 228 217 200 161 161 156 156 201 184 161 159 128
170 177 167 174 167 161 159 168 162 156 151 158 156 150 157 149 154 155 146 161 158 160 174 146 162 158 185 161 167 155 156 150 125 137 149 143 150 155 139 143 152 150 135 126 135 169 193 118 137 161 183 171 161 180 136 9 100 188 169 134 323 239 245 245 118 97 287 51 32 21 27 205 253 252 257 181 173 150 173 180 172 147 95 94 164
175 178 174 174 168 163 161 170 162 157 156 160 161 157 161 146 158 162 151 166 159 152 174 150 165 170 185 153 144 148 152 129 118 143 151 150 154 148 149 154 161 157 156 161 151 148 163 154 157 153 170 110 117 82 109 269 156 356 273 164 117 6 353 329 116 147 76 43 351 285 228 106 12 342 339 348 343 150 162 150 180 123 139 161 188
183 179 173 177 168 169 165 170 165 161 164 165 164 164 166 155 160 168 152 160 162 154 171 153 147 157 126 86 27 137 103 122 140 149 165 154 155 162 161 162 168 161 167 150 165 157 143 108 122 136 153 147 157 179 195 213 200 200 185 165 151 125 59 304 154 116 141 16 144 323 24 26 351 316 34 330 337 302 171 85 330 134 135 152 204
205 181 177 179 171 168 165 173 171 165 169 167 169 166 162 158 160 169 158 157 166 161 167 149 145 148 157 155 171 157 148 169 166 155 165 175 166 161 158 171 170 173 157 154 160 136 137 145 154 177 170 146 198 82 248 199 196 240 143 36 212 171 141 94 319 81 108 154 243 96 145 176 220 309 312 308 304 317 356 94 197 189 144 162 207
191 186 180 182 172 173 166 178 176 168 175 165 171 167 158 159 160 172 164 160 162 161 165 148 150 161 175 165 159 159 155 162 178 164 159 149 137 152 155 164 163 168 162 151 175 141 165 163 176 156 161 156 177 171 202 211 135 231 66 98 19 9 78 27 11 10 40 314 22 35 130 301 115 70 323 2 347 326 344 284 135 359 174 176 176
190 190 183 186 173 178 172 179 182 171 173 168 173 167 153 155 162 168 167 163 161 162 167 150 158 175 182 179 161 162 169 166 177 155 151 130 174 150 158 161 171 173 149 141 155 149 165 164 161 158 175 210 166 148 110 157 48 130 138 146 78 100 83 101 14 22 22 317 71 333 341 58 6 287 36 15 262 273 303 327 332 21 27 72 268
187 190 188 187 173 179 177 180 186 173 176 168 177 159 151 155 161 166 168 167 155 163 165 162 164 175 181 180 147 190 157 163 165 166 165 133 163 163 164 150 160 118 174 150 150 163 165 161 169 166 144 198 130 250 139 193 127 117 120 102 167 145 110 174 137 39 341 45 348 350 14 328 249 233 99 304 277 358 306 203 44 346 4 65 344
194 192 190 185 180 181 177 180 191 179 175 166 176 162 160 159 163 169 169 171 158 163 174 168 169 173 185 178 162 175 162 155 170 187 138 141 154 154 136 140 162 150 156 164 146 165 166 165 173 172 148 147 84 145 136 147 158 154 90 44 56 31 322 59 106 216 316 187 257 321 31 286 339 343 232 225 51 41 296 324 271 167 212 10 341
181 181 198 191 191 178 173 181 189 186 173 168 176 162 164 167 166 173 170 172 161 167 176 175 172 177 181 186 167 175 158 166 158 180 126 143 153 150 144 163 168 163 162 164 161 175 164 176 170 161 134 176 158 172 176 107 125 135 144 177 175 163 83 326 299 213 174 245 211 160 198 196 173 245 351 20 336 326 327 315 347 4 16 135 335
171 172 198 187 177 188 171 179 197 200 175 169 181 165 165 167 169 173 171 176 164 170 177 179 178 176 179 189 174 176 170 165 175 162 154 164 174 163 162 165 191 164 170 157 177 171 158 185 135 181 127 133 195 142 81 119 110 89 77 145 146 142 186 181 173 277 244 178 285 189 200 245 161 212 220 153 148 353 27 327 318 326 329 310 168
172 180 188 188 179 186 183 181 190 217 175 171 181 172 170 166 169 175 172 180 168 172 179 179 184 178 178 182 177 178 181 164 175 159 171 173 181 171 161 165 204 175 177 161 181 175 149 174 153 170 159 165 101 105 149 140 112 92 181 181 129 192 157 182 139 282 335 30 218 282 323 340 348 158 318 328 136 125 141 155 318 349 322 285 27
178 183 193 189 182 186 188 184 189 217 192 178 184 174 168 170 169 179 173 181 171 175 179 177 186 181 181 177 177 176 185 176 170 175 175 175 188 178 177 179 182 193 191 178 179 169 152 163 174 149 158 151 143 147 165 149 133 128 224 182 165 130 203 179 219 230 229 224 62 2 313 165 318 350 37 246 214 169 199 218 35 337 305 311 287
182 178 189 191 191 192 187 187 191 206 198 186 191 171 159 165 169 176 177 180 176 179 179 180 180 182 184 180 177 176 185 186 178 187 171 178 189 187 187 177 175 195 196 161 213 149 152 151 166 156 167 152 153 153 173 147 152 154 172 112 137 239 253 179 210 292 197 242 177 183 269 1 348 296 262 198 352 25 11 81 82 14 325 323 330
178 176 174 172 213 213 200 200 193 197 210 111 94 52 34 345 172 179 180 182 180 180 185 183 178 179 183 185 182 179 179 186 186 183 177 183 187 185 190 194 180 162 193 148 188 170 151 154 163 175 158 167 160 179 177 162 170 168 179 170 187 196 241 215 202 221 259 245 286 145 169 247 261 316 13 338 328 53 76 95 150 183 45 327 333
151 122 115 136 215 227 204 197 194 199 200 150 109 113 133 171 243 188 184 188 183 187 187 187 179 181 181 185 188 182 181 189 191 191 192 189 178 193 178 198 202 161 180 179 176 178 169 171 169 180 168 166 172 175 187 146 177 188 184 175 244 229 217 197 231 234 258 278 259 268 155 211 184 256 298 221 99 83 1 15 71 154 119 100 306
113 131 182 189 200 208 195 199 194 189 192 120 104 130 163 187 217 189 187 192 188 190 191 188 185 187 181 185 190 189 189 193 191 188 195 186 182 184 190 182 198 196 195 177 172 171 180 187 171 191 164 188 180 177 184 185 171 186 194 182 214 200 210 200 222 269 267 264 290 259 236 165 245 209 195 241 135 176 181 204 208 178 139 171 187
157 175 205 210 212 208 201 189 190 167 100 97 95 129 153 186 240 197 200 209 197 194 193 189 190 193 190 190 190 192 194 196 193 181 197 189 192 185 203 183 191 194 190 193 168 170 177 176 191 193 178 177 187 188 172 187 185 191 197 195 199 197 209 226 228 226 251 198 217 260 241 199 199 183 310 261 207 109 238 125 240 56 318 139 276
153 166 195 183 189 191 182 179 125 122 112 105 133 137 162 159 131 245 210 196 208 210 199 192 193 198 193 192 194 195 195 199 197 181 190 195 196 185 200 189 191 183 186 198 189 180 178 187 194 200 192 192 183 198 188 182 190 194 211 208 198 187 189 202 228 229 242 202 186 213 216 195 231 266 284 327 259 191 175 203 203 168 153 215 199
63 148 177 194 178 176 174 149 107 93 107 129 144 151 157 176 197 220 216 207 212 198 217 204 198 200 196 191 196 197 199 199 204 196 192 195 197 195 193 200 185 189 185 186 194 200 182 185 192 196 203 186 188 187 193 177 184 194 220 225 263 178 182 197 193 246 255 282 253 207 229 227 259 290 259 246 266 256 182 189 194 183 215 193 200
79 52 63 177 173 149 127 103 102 114 111 95 133 152 171 191 200 208 216 204 214 210 203 221 209 216 211 195 201 196 200 200 204 200 202 195 196 204 188 199 187 192 191 189 185 202 201 186 199 190 204 197 179 184 192 193 181 194 201 213 225 246 213 197 207 199 223 256 270 225 206 233 224 219 230 241 229 222 217 206 188 204 198 203 194
61 52 43 44 43 50 77 86 92 122 125 147 193 172 186 194 187 184 206 157 225 230 158 27 21 357 300 236 203 201 199 200 203 202 203 204 198 199 203 198 199 192 197 199 181 198 193 195 200 195 187 203 187 184 199 196 189 188 196 219 212 191 205 212 209 216 232 234 235 245 248 226 233 224 208 221 244 266 293 307 303 221 195 214 193
63 60 55 46 46 54 57 66 63 45 110 110 216 192 184 190 190 172 197 46 59 47 24 85 65 318 1 323 290 221 200 203 204 203 203 205 201 198 199 204 205 201 192 201 195 190 189 188 202 202 186 195 202 198 191 204 199 187 193 204 242 204 187 200 214 215 212 217 233 235 240 245 240 234 229 238 257 253 241 246 251 255 255 258 285
69 71 57 43 46 50 58 43 27 20 8 23 327 229 78 35 350 41 114 166 162 163 174 168 171 182 218 197 288 284 231 205 205 205 204 204 204 200 195 202 204 212 196 188 202 194 182 187 197 206 197 194 205 206 196 199 205 204 194 202 211 227 220 200 203 206 217 217 212 220 221 220 229 249 256 243 228 229 228 232 243 238 217 215 214
75 72 73 54 33 40 52 46 27 38 52 67 56 35 30 20 303 137 191 186 176 164 151 175 174 165 175 183 204 257 268 221 211 209 206 202 204 203 197 197 206 211 211 189 189 202 193 187 196 199 207 203 203 206 202 205 208 204 201 202 204 207 214 219 218 210 208 217 227 220 225 224 224 218 223 224 231 240 233 226 231 241 257 269 242
75 74 79 89 64 36 23 36 54 44 51 72 88 113 123 252 146 173 202 184 160 137 129 186 193 186 185 205 208 207 257 267 226 217 210 202 203 204 201 195 199 208 213 215 189 192 199 193 191 197 204 207 205 209 207 206 214 219 203 198 209 206 209 208 213 217 219 216 218 222 223 229 239 239 241 243 245 242 231 243 248 250 240 227 242
76 76 78 79 85 93 76 38 28 49 18 19 44 56 23 44 36 350 133 97 93 107 80 291 283 262 245 245 223 228 269 273 272 247 222 214 207 206 201 191 183 199 210 217 218 189 189 198 195 200 207 205 206 209 212 210 210 222 227 210 203 210 212 211 212 210 218 222 214 215 223 216 214 219 225 231 227 234 232 241 222 218 228 237 248
81 76 73 76 76 72 74 87 93 77 52 26 35 39 130 79 47 32 45 72 39 42 341 252 259 260 251 264 345 31 342 332 331 327 313 291 251 217 212 202 178 191 203 212 222 219 187 192 198 198 205 214 212 211 213 211 211 212 223 230 220 214 217 216 211 215 214 219 227 228 224 225 211 206 208 210 216 213 220 224 226 220 224 229 231
72 73 74 73 78 77 72 69 73 77 67 35 33 38 24 24 41 39 51 59 73 78 218 325 119 298 324 330 98 107 94 22 2 30 17 0 346 331 283 231 235 210 194 196 208 228 217 185 190 191 196 210 218 218 209 209 207 210 211 221 222 219 218 219 220 221 223 215 218 227 237 236 234 221 208 208 211 216 213 212 207 207 213 215 221
66 70 70 67 62 69 72 67 65 66 68 59 36 12 33 58 28 31 42 47 58 50 63 89 70 56 56 61 105 125 145 159 177 114 105 50 339 350 344 322 292 241 233 195 205 215 228 226 193 191 199 209 217 222 202 197 202 209 212 216 223 219 212 218 219 220 226 230 234 231 231 235 237 242 229 210 215 217 218 223 224 218 212 212 230
60 58 57 60 61 54 58 60 58 61 62 67 52 35 36 32 37 21 37 48 51 60 54 56 48 43 38 32 44 92 96 52 354 2 59 99 163 167 210 244 298 282 230 227 224 219 227 241 238 215 204 209 217 221 205 194 197 203 208 215 220 226 224 215 218 222 221 226 233 239 240 242 235 226 228 213 212 214 217 220 222 225 227 227 221
69 55 54 53 50 50 51 56 53 52 54 54 64 59 50 47 52 57 23 36 42 45 54 62 57 51 42 26 14 21 44 95 75 71 143 154 282 298 245 212 252 309 325 280 228 220 223 227 241 258 252 218 211 215 208 197 200 201 205 210 218 220 225 228 221 218 222 225 226 227 239 247 251 241 225 222 210 214 216 218 218 223 228 228 231
73 72 60 51 48 44 42 47 49 42 49 50 39 54 50 46 52 59 63 53 45 46 48 50 51 43 41 49 22 19 13 10 3 10 10 143 177 192 296 312 304 305 297 305 312 274 239 224 230 247 260 265 254 217 201 197 202 204 206 206 217 221 226 230 226 221 219 219 219 221 227 235 239 253 262 256 231 209 218 224 228 228 229 237 237
70 63 61 59 51 41 39 45 47 37 31 38 39 38 42 43 50 51 48 51 42 42 41 42 44 44 38 34 33 37 16 359 351 348 338 302 258 240 226 233 262 263 250 269 289 321 318 308 281 253 249 256 255 261 216 202 200 203 208 206 216 222 228 231 235 237 237 232 217 216 220 225 227 230 231 238 251 244 207 213 220 223 225 230 230
55 73 62 47 43 40 25 39 59 49 31 32 34 33 40 31 35 55 52 49 47 42 38 39 37 28 37 44 37 15 2 353 346 339 340 331 283 256 250 236 237 250 268 260 241 239 249 254 265 284 282 283 265 255 246 210 211 209 205 201 213 220 224 230 231 234 239 238 241 239 231 228 226 224 222 222 223 229 241 237 218 214 216 219 225
54 55 68 52 33 20 20 15 57 50 35 32 39 33 40 29 23 37 49 50 49 44 38 32 27 18 16 41 117 92 310 338 345 335 329 332 330 298 263 242 240 251 258 254 252 237 224 221 226 226 226 234 249 250 241 215 204 207 205 218 217 219 222 228 233 232 232 234 237 237 235 243 243 241 232 218 221 218 231 238 244 243 236 234 227
45 51 60 46 30 4 4 11 26 36 17 6 63 41 48 32 12 15 46 54 52 41 29 23 17 4 8 354 13 143 164 222 295 322 323 317 316 322 308 272 262 270 267 273 282 276 274 268 264 261 242 237 241 245 241 216 206 198 190 195 211 216 224 226 235 235 233 237 242 241 239 236 238 240 239 226 219 208 225 233 240 245 247 245 243
32 40 40 28 14 351 345 4 15 26 357 352 36 39 35 27 12 7 28 33 39 35 25 17 10 353 2 350 359 5 309 305 307 313 315 308 310 309 296 296 286 271 271 278 284 283 284 279 268 269 271 266 260 248 239 216 206 198 196 207 204 210 218 224 226 231 230 235 236 239 241 239 235 235 231 226 218 208 226 231 235 242 246 248 247
6 43 24 5 342 332 360 358 6 19 340 350 15 26 26 23 11 3 12 14 22 24 17 12 2 349 348 352 344 3 347 330 312 305 306 291 286 286 284 287 283 280 280 281 276 278 285 283 265 257 274 286 283 273 264 227 206 201 199 204 207 207 220 222 223 226 230 224 226 229 231 231 234 235 232 225 216 205 218 231 234 238 245 246 246
7 24 358 345 347 4 359 342 12 349 347 0 14 8 6 4 360 358 4 1 4 9 3 7 350 344 342 344 348 344 334 318 313 302 293 295 292 286 289 281 286 292 303 303 310 309 294 291 311 329 306 301 307 318 328 329 282 223 203 203 211 217 221 221 222 229 230 236 235 229 229 218 219 226 229 228 221 213 216 226 229 238 239 246 246
9 357 346 3 359 7 352 351 351 346 4 3 356 4 354 355 346 347 347 342 1 355 353 348 340 328 337 337 338 325 318 320 317 309 282 284 280 288 291 285 261 251 257 272 275 285 285 280 280 273 268 263 245 243 294 304 302 276 247 208 214 223 217 218 224 229 231 233 236 239 238 224 211 216 221 224 224 218 218 219 232 236 243 244 240
349 350 8 10 4 355 353 350 351 356 355 349 344 347 346 339 335 339 339 340 345 345 341 333 318 322 326 330 314 320 318 324 313 302 295 290 291 287 276 277 282 271 274 276 260 271 271 263 271 275 275 276 286 285 218 233 245 236 237 260 255 243 213 215 222 226 227 234 237 240 244 239 218 212 216 220 221 221 218 225 233 238 240 242 242
356 1 9 4 356 353 349 345 347 352 349 348 346 339 331 333 332 354 339 340 336 334 324 317 317 317 338 321 316 315 324 315 306 302 302 288 283 275 274 271 260 253 253 246 224 225 246 265 278 277 273 267 254 255 259 261 271 255 239 225 237 258 275 262 237 232 228 232 235 237 241 257 255 219 219 218 218 217 217 226 231 235 238 239 238
6 360 12 358 349 337 333 332 339 343 347 349 345 343 343 341 350 339 339 326 320 315 318 321 327 331 320 313 309 312 309 307 303 304 294 283 277 270 265 263 268 269 257 247 199 201 246 286 284 271 276 279 274 259 261 264 310 311 254 237 243 243 244 249 268 265 253 245 249 293 53 65 90 192 216 229 248 245 237 234 231 231 233 218 228
357 0 359 342 331 330 331 333 337 339 343 341 340 337 336 343 339 337 329 333 332 336 333 330 322 314 312 310 310 310 304 290 298 296 288 278 267 256 247 235 264 293 295 313 5 330 302 294 282 284 284 283 284 282 291 331 50 241 255 259 265 284 291 286 276 281 285 298 306 304 292 289 264 219 188 197 203 218 225 229 238 241 238 227 227
351 350 342 341 339 334 336 335 334 338 334 331 330 331 329 335 329 333 328 334 334 323 314 306 304 305 306 304 296 295 297 303 292 285 281 278 301 334 330 321 290 288 312 43 85 2 327 308 309 323 326 321 312 306 313 206 249 330 18 20 26 313 272 274 294 286 284 272 271 267 257 263 276 276 268 254 243 225 221 220 218 220 222 229 228
344 335 348 335 335 332 331 331 329 330 329 329 328 326 324 325 327 321 326 327 320 320 314 311 306 303 296 293 289 291 291 286 286 291 299 305 313 303 301 321 4 5 355 342 333 320 295 291 290 293 294 300 309 331 328 320 18 43 16 360 346 304 279 268 264 258 256 265 268 276 282 289 282 281 265 236 229 235 231 223 208 193 205 219 228
340 345 335 335 333 329 328 326 325 328 325 324 323 321 322 321 319 323 323 321 314 312 311 306 304 298 297 298 296 294 291 293 296 296 293 316 309 306 318 329 313 327 310 302 298 284 282 286 288 284 292 292 281 283 279 147 118 104 31 312 291 275 286 288 272 292 279 270 269 266 263 258 254 252 253 251 251 246 239 230 227 215 198 200 213
335 334 334 332 328 328 323 321 318 318 319 318 319 315 314 314 315 315 315 310 312 309 307 305 305 302 298 298 295 294 295 302 301 300 304 306 322 331 306 291 288 271 256 236 225 251 264 281 281 269 262 268 276 281 306 304 296 285 248 238 246 263 257 251 259 282 275 277 260 258 249 248 244 237 241 241 243 244 241 235 226 219 217 216 210
334 326 325 328 326 322 317 315 321 323 320 317 314 315 312 311 307 304 301 300 302 305 304 304 301 297 297 300 302 298 297 297 295 294 295 296 289 275 255 246 240 245 244 244 241 242 251 252 239 266 258 249 257 265 269 271 276 276 265 250 247 251 260 261 255 250 247 228 248 251 249 248 246 252 251 246 247 252 254 249 245 236 221 222 223